Location: Unspecified
(35.6961°N, 0.0000°E)
Time: 14:36:26
(UTC+00:00)

Courier 1B - Visible Passes

Search period start: 21 May 2019 00:00
Search period end: 31 May 2019 00:00
Orbit: 962 x 1209 km, 28.3° (Epoch: 20 May)

Date Brightness Start Highest point End Pass type
(mag) Time Alt. Az. Time Alt. Az. Time Alt. Az.
24 May 9.4 04:21:03 10° S 04:24:56 16° SSE 04:28:44 10° ESE visible
25 May 9.6 03:28:55 10° S 03:31:23 12° SSE 03:33:49 10° SE visible
27 May 9.1 03:33:17 12° SSW 03:37:29 21° SSE 03:42:11 10° ESE visible
28 May 9.3 02:42:41 16° SSE 02:43:53 16° SSE 02:47:52 10° ESE visible
29 May 9.7 01:52:03 11° SE 01:52:03 11° SE 01:53:00 10° SE visible
29 May 8.6 03:38:55 15° SW 03:43:38 30° SSE 03:49:18 10° ESE visible
30 May 8.8 02:48:16 23° S 02:50:01 25° SSE 02:55:24 10° ESE visible
